N376S KDAB-KMEI

Flight info

Callsign N376S
Flight time 1h 32m
Altitude 40000
Route ROYES7 CRG MHOUS/N0393F160 T349 LYFEE T421 EGEST MGM EWA
Aircraft E55P/L-SDGRWY/L

Departure

Time 2026-05-07 19:52
Airport Daytona Beach International Airport (KDAB)

Arrival

Time 2026-05-07 21:25
Airport Key Field / Meridian Regional Airport (KMEI)
Time Latitude Longitude Altitude Speed Heading
2026-05-07 19:42 29.18585 -81.05657 30 ft 0 kts 249°
2026-05-07 19:47 29.18584 -81.05660 30 ft 1 kts 243°
2026-05-07 19:47 29.18572 -81.05649 30 ft 5 kts 72°
2026-05-07 19:48 29.18593 -81.05591 30 ft 9 kts 64°
2026-05-07 19:48 29.18572 -81.05527 30 ft 10 kts 159°
2026-05-07 19:48 29.18497 -81.05491 30 ft 12 kts 156°
2026-05-07 19:48 29.18413 -81.05450 30 ft 13 kts 156°
2026-05-07 19:49 29.18385 -81.05359 30 ft 13 kts 69°
2026-05-07 19:49 29.18424 -81.05258 30 ft 14 kts 63°
2026-05-07 19:49 29.18472 -81.05141 29 ft 17 kts 66°
2026-05-07 19:49 29.18528 -81.04997 27 ft 21 kts 65°
2026-05-07 19:50 29.18557 -81.04859 27 ft 16 kts 131°
2026-05-07 19:50 29.18531 -81.04842 27 ft 0 kts 157°
2026-05-07 19:50 29.18530 -81.04842 27 ft 0 kts 158°
2026-05-07 19:51 29.18506 -81.04829 27 ft 7 kts 154°
2026-05-07 19:51 29.18449 -81.04829 27 ft 6 kts 245°
2026-05-07 19:51 29.18419 -81.04904 27 ft 30 kts 245°
2026-05-07 19:52 29.18213 -81.05417 30 ft 110 kts 246°
2026-05-07 19:52 29.17834 -81.06322 405 ft 136 kts 243°
2026-05-07 19:52 29.17399 -81.07310 1078 ft 150 kts 244°
2026-05-07 19:52 29.16822 -81.08399 1636 ft 178 kts 231°
2026-05-07 19:53 29.16087 -81.09637 2316 ft 200 kts 243°
2026-05-07 19:53 29.15455 -81.11009 3468 ft 195 kts 243°
2026-05-07 19:53 29.14872 -81.12257 4699 ft 181 kts 243°
2026-05-07 19:53 29.14361 -81.13534 5613 ft 182 kts 261°
2026-05-07 19:54 29.14563 -81.14986 6303 ft 199 kts 290°
2026-05-07 19:54 29.15255 -81.16501 6646 ft 235 kts 299°
2026-05-07 19:54 29.16187 -81.18111 7419 ft 248 kts 302°
2026-05-07 19:54 29.17170 -81.19683 8583 ft 243 kts 303°
2026-05-07 19:55 29.18120 -81.21172 9680 ft 238 kts 302°
2026-05-07 19:55 29.19094 -81.22692 10539 ft 238 kts 302°
2026-05-07 19:55 29.20120 -81.24297 10682 ft 268 kts 303°
2026-05-07 19:55 29.21283 -81.26111 10999 ft 289 kts 303°
2026-05-07 19:56 29.22455 -81.27929 11864 ft 287 kts 302°
2026-05-07 19:56 29.23615 -81.29733 12805 ft 282 kts 302°
2026-05-07 19:56 29.24772 -81.31541 13578 ft 283 kts 302°
2026-05-07 19:56 29.25935 -81.33356 14283 ft 287 kts 302°
2026-05-07 19:57 29.27112 -81.35194 14985 ft 290 kts 302°
2026-05-07 19:57 29.28297 -81.37042 15748 ft 291 kts 302°
2026-05-07 19:57 29.29487 -81.38900 16502 ft 291 kts 302°
2026-05-07 19:57 29.30919 -81.40581 17193 ft 303 kts 324°
2026-05-07 19:58 29.32970 -81.41268 17823 ft 323 kts 351°
2026-05-07 19:58 29.35226 -81.41318 18441 ft 324 kts 348°
2026-05-07 19:58 29.37480 -81.41529 19057 ft 328 kts 348°
2026-05-07 19:58 29.39753 -81.41745 19622 ft 331 kts 347°
2026-05-07 19:59 29.42042 -81.41969 20188 ft 333 kts 347°
2026-05-07 19:59 29.44380 -81.42192 20746 ft 336 kts 347°
2026-05-07 19:59 29.46692 -81.42418 21291 ft 338 kts 347°
2026-05-07 19:59 29.49073 -81.42651 21822 ft 341 kts 347°
2026-05-07 20:00 29.51439 -81.42879 22342 ft 343 kts 347°
2026-05-07 20:00 29.53799 -81.43108 22849 ft 345 kts 347°
2026-05-07 20:00 29.56203 -81.43343 23287 ft 349 kts 347°
2026-05-07 20:00 29.58630 -81.43580 23773 ft 352 kts 347°
2026-05-07 20:01 29.61081 -81.43819 24255 ft 353 kts 347°
2026-05-07 20:01 29.63558 -81.44061 24691 ft 356 kts 347°
2026-05-07 20:01 29.66026 -81.44302 25158 ft 357 kts 346°
2026-05-07 20:01 29.68482 -81.44540 25740 ft 354 kts 346°
2026-05-07 20:02 29.70910 -81.44777 26288 ft 352 kts 346°
2026-05-07 20:02 29.73349 -81.45016 26768 ft 352 kts 346°
2026-05-07 20:02 29.75808 -81.45259 27252 ft 352 kts 346°
2026-05-07 20:02 29.78235 -81.45495 27720 ft 351 kts 346°
2026-05-07 20:03 29.80675 -81.45737 28177 ft 350 kts 345°
2026-05-07 20:03 29.83071 -81.45972 28664 ft 349 kts 345°
2026-05-07 20:03 29.85478 -81.46204 29167 ft 347 kts 345°
2026-05-07 20:03 29.87892 -81.46446 29590 ft 347 kts 345°
2026-05-07 20:04 29.90311 -81.46683 30002 ft 348 kts 345°
2026-05-07 20:04 29.92724 -81.46922 30438 ft 347 kts 345°
2026-05-07 20:04 29.95122 -81.47157 30913 ft 345 kts 345°
2026-05-07 20:04 29.97504 -81.47392 31338 ft 344 kts 345°
2026-05-07 20:05 29.99859 -81.47623 31828 ft 341 kts 344°
2026-05-07 20:05 30.02248 -81.47859 32207 ft 342 kts 344°
2026-05-07 20:05 30.04615 -81.48092 32560 ft 343 kts 344°
2026-05-07 20:05 30.06998 -81.48330 32986 ft 342 kts 344°
2026-05-07 20:06 30.09381 -81.48562 33486 ft 339 kts 344°
2026-05-07 20:06 30.11732 -81.48794 33992 ft 336 kts 344°
2026-05-07 20:06 30.14071 -81.49028 34451 ft 334 kts 344°
2026-05-07 20:06 30.16396 -81.49256 34844 ft 334 kts 344°
2026-05-07 20:07 30.18695 -81.49485 35278 ft 333 kts 344°
2026-05-07 20:07 30.20980 -81.49712 35686 ft 332 kts 344°
2026-05-07 20:07 30.23299 -81.49940 36099 ft 331 kts 344°
2026-05-07 20:07 30.25584 -81.50168 36500 ft 330 kts 344°
2026-05-07 20:08 30.27870 -81.50394 36831 ft 330 kts 344°
2026-05-07 20:08 30.30167 -81.50620 37211 ft 330 kts 344°
2026-05-07 20:08 30.32450 -81.50847 37623 ft 327 kts 344°
2026-05-07 20:08 30.34737 -81.51037 37951 ft 329 kts 346°
2026-05-07 20:09 30.36884 -81.51720 38224 ft 303 kts 319°
2026-05-07 20:09 30.38273 -81.53406 38464 ft 284 kts 291°
2026-05-07 20:09 30.38612 -81.55654 38718 ft 282 kts 264°
2026-05-07 20:10 30.37174 -81.59988 39346 ft 286 kts 254°
2026-05-07 20:10 30.36448 -81.62202 39740 ft 282 kts 259°
2026-05-07 20:10 30.36136 -81.64484 39961 ft 280 kts 270°
2026-05-07 20:10 30.36164 -81.66777 39990 ft 287 kts 273°
2026-05-07 20:11 30.36321 -81.69179 39981 ft 296 kts 276°
2026-05-07 20:11 30.36836 -81.74116 39979 ft 313 kts 278°
2026-05-07 20:12 30.37460 -81.79285 39981 ft 328 kts 277°
2026-05-07 20:12 30.38122 -81.84654 39978 ft 343 kts 278°
2026-05-07 20:13 30.38821 -81.90279 39975 ft 356 kts 278°
2026-05-07 20:13 30.39543 -81.96101 39972 ft 368 kts 278°
2026-05-07 20:14 30.40256 -82.01907 39957 ft 352 kts 278°
2026-05-07 20:14 30.40955 -82.07575 39967 ft 354 kts 277°
2026-05-07 20:15 30.41655 -82.13306 39945 ft 358 kts 277°
2026-05-07 20:15 30.42356 -82.19057 39940 ft 360 kts 278°
2026-05-07 20:16 30.43056 -82.24827 39934 ft 362 kts 277°
2026-05-07 20:16 30.43758 -82.30597 39934 ft 364 kts 277°
2026-05-07 20:17 30.44458 -82.36428 39934 ft 364 kts 277°
2026-05-07 20:17 30.45149 -82.42184 39933 ft 362 kts 277°
2026-05-07 20:18 30.45839 -82.47946 39934 ft 363 kts 277°
2026-05-07 20:18 30.46530 -82.53746 39934 ft 362 kts 277°
2026-05-07 20:19 30.47211 -82.59480 39935 ft 362 kts 277°
2026-05-07 20:19 30.47891 -82.65250 39928 ft 363 kts 277°
2026-05-07 20:20 30.48576 -82.71049 39946 ft 362 kts 277°
2026-05-07 20:20 30.49249 -82.76765 39945 ft 361 kts 277°
2026-05-07 20:21 30.49924 -82.82558 39945 ft 362 kts 276°
2026-05-07 20:21 30.50596 -82.88327 39945 ft 361 kts 277°
2026-05-07 20:22 30.51261 -82.94060 39947 ft 362 kts 276°
2026-05-07 20:22 30.51925 -82.99822 39938 ft 360 kts 277°
2026-05-07 20:23 30.52588 -83.05577 39940 ft 361 kts 277°
2026-05-07 20:23 30.53250 -83.11340 39934 ft 361 kts 277°
2026-05-07 20:24 30.53906 -83.17094 39932 ft 360 kts 276°
2026-05-07 20:24 30.54557 -83.22810 39947 ft 361 kts 276°
2026-05-07 20:25 30.55213 -83.28622 39945 ft 362 kts 276°
2026-05-07 20:25 30.55864 -83.34390 39937 ft 361 kts 276°
2026-05-07 20:26 30.56512 -83.40144 39934 ft 362 kts 276°
2026-05-07 20:26 30.57161 -83.45944 39933 ft 362 kts 276°
2026-05-07 20:27 30.57799 -83.51698 39931 ft 361 kts 276°
2026-05-07 20:27 30.58443 -83.57496 39928 ft 361 kts 276°
2026-05-07 20:28 30.59080 -83.63243 39924 ft 362 kts 276°
2026-05-07 20:28 30.59715 -83.69042 39948 ft 362 kts 276°
2026-05-07 20:29 30.60348 -83.74806 39934 ft 362 kts 275°
2026-05-07 20:29 30.60982 -83.80609 39938 ft 362 kts 276°
2026-05-07 20:30 30.61611 -83.86390 39921 ft 361 kts 276°
2026-05-07 20:30 30.62233 -83.92139 39936 ft 363 kts 275°
2026-05-07 20:31 30.62858 -83.97924 39928 ft 361 kts 276°
2026-05-07 20:31 30.63480 -84.03738 39939 ft 362 kts 276°
2026-05-07 20:32 30.64096 -84.09503 39943 ft 362 kts 275°
2026-05-07 20:32 30.64713 -84.15292 39949 ft 362 kts 275°
2026-05-07 20:33 30.65321 -84.21072 39943 ft 362 kts 275°
2026-05-07 20:33 30.65932 -84.26844 39953 ft 362 kts 276°
2026-05-07 20:34 30.66546 -84.32670 39945 ft 362 kts 275°
2026-05-07 20:34 30.67150 -84.38442 39944 ft 362 kts 275°
2026-05-07 20:35 30.67751 -84.44236 39946 ft 362 kts 275°
2026-05-07 20:35 30.68354 -84.50027 39945 ft 362 kts 276°
2026-05-07 20:36 30.69003 -84.55814 39918 ft 365 kts 282°
2026-05-07 20:36 30.70171 -84.58469 39974 ft 376 kts 303°
2026-05-07 20:36 30.71916 -84.60809 39943 ft 378 kts 303°
2026-05-07 20:37 30.75230 -84.65584 39948 ft 378 kts 302°
2026-05-07 20:37 30.78535 -84.70349 39962 ft 376 kts 302°
2026-05-07 20:38 30.81810 -84.75078 39964 ft 377 kts 302°
2026-05-07 20:38 30.85100 -84.79836 39969 ft 377 kts 302°
2026-05-07 20:39 30.88392 -84.84606 39960 ft 379 kts 302°
2026-05-07 20:39 30.91681 -84.89374 39952 ft 377 kts 302°
2026-05-07 20:40 30.94934 -84.94100 39956 ft 376 kts 302°
2026-05-07 20:40 30.98208 -84.98859 39962 ft 378 kts 302°
2026-05-07 20:41 31.01485 -85.03627 39954 ft 377 kts 302°
2026-05-07 20:41 31.04751 -85.08384 39953 ft 375 kts 301°
2026-05-07 20:42 31.08043 -85.13184 39954 ft 377 kts 302°
2026-05-07 20:42 31.11327 -85.17987 39959 ft 375 kts 301°
2026-05-07 20:43 31.14581 -85.22746 39958 ft 373 kts 301°
2026-05-07 20:43 31.17843 -85.27518 39968 ft 374 kts 301°
2026-05-07 20:44 31.21100 -85.32295 39961 ft 373 kts 301°
2026-05-07 20:44 31.24364 -85.37078 39974 ft 372 kts 301°
2026-05-07 20:45 31.27644 -85.41891 39968 ft 373 kts 301°
2026-05-07 20:45 31.29678 -85.43920 39986 ft 395 kts 322°
2026-05-07 20:45 31.32196 -85.45333 39959 ft 398 kts 323°
2026-05-07 20:46 31.37209 -85.48310 39967 ft 399 kts 323°
2026-05-07 20:46 31.42105 -85.51339 39931 ft 387 kts 314°
2026-05-07 20:47 31.46141 -85.55344 39980 ft 382 kts 310°
2026-05-07 20:47 31.50179 -85.59368 39962 ft 381 kts 310°
2026-05-07 20:48 31.54207 -85.63381 39959 ft 379 kts 310°
2026-05-07 20:48 31.58233 -85.67405 39976 ft 380 kts 309°
2026-05-07 20:49 31.62215 -85.71387 39971 ft 378 kts 309°
2026-05-07 20:49 31.66203 -85.75375 39975 ft 379 kts 309°
2026-05-07 20:50 31.70201 -85.79385 39978 ft 378 kts 309°
2026-05-07 20:50 31.74204 -85.83397 39977 ft 378 kts 309°
2026-05-07 20:51 31.78180 -85.87395 39984 ft 375 kts 309°
2026-05-07 20:51 31.82129 -85.91369 39985 ft 375 kts 309°
2026-05-07 20:52 31.86103 -85.95366 39988 ft 377 kts 308°
2026-05-07 20:52 31.90044 -85.99339 39981 ft 373 kts 308°
2026-05-07 20:53 31.93984 -86.03313 39992 ft 373 kts 308°
2026-05-07 20:53 31.97915 -86.07291 39981 ft 374 kts 308°
2026-05-07 20:54 32.01884 -86.11304 39987 ft 375 kts 308°
2026-05-07 20:54 32.05819 -86.15286 39974 ft 372 kts 308°
2026-05-07 20:55 32.09757 -86.19282 39977 ft 371 kts 308°
2026-05-07 20:55 32.13654 -86.23242 39971 ft 372 kts 308°
2026-05-07 20:56 32.17588 -86.27235 39976 ft 370 kts 307°
2026-05-07 20:56 32.21354 -86.31312 39936 ft 357 kts 295°
2026-05-07 20:56 32.22274 -86.33920 39989 ft 337 kts 275°
2026-05-07 20:57 32.22507 -86.36646 39981 ft 336 kts 273°
2026-05-07 20:57 32.22990 -86.42120 39972 ft 334 kts 272°
2026-05-07 20:58 32.23414 -86.47573 39969 ft 334 kts 272°
2026-05-07 20:58 32.23826 -86.53017 39966 ft 334 kts 272°
2026-05-07 20:59 32.24230 -86.58463 39965 ft 333 kts 272°
2026-05-07 20:59 32.24635 -86.63934 39963 ft 333 kts 272°
2026-05-07 21:00 32.25039 -86.69365 39982 ft 332 kts 271°
2026-05-07 21:00 32.25437 -86.74822 39982 ft 334 kts 271°
2026-05-07 21:01 32.25835 -86.80261 39989 ft 332 kts 271°
2026-05-07 21:01 32.26026 -86.82975 39482 ft 339 kts 271°
2026-05-07 21:01 32.26234 -86.85749 38875 ft 337 kts 271°
2026-05-07 21:01 32.26432 -86.88463 38293 ft 333 kts 271°
2026-05-07 21:02 32.26619 -86.91170 37707 ft 333 kts 271°
2026-05-07 21:02 32.26818 -86.93891 37140 ft 338 kts 271°
2026-05-07 21:02 32.27013 -86.96678 36567 ft 339 kts 271°
2026-05-07 21:02 32.27213 -86.99447 35997 ft 339 kts 271°
2026-05-07 21:03 32.27409 -87.02212 35426 ft 341 kts 271°
2026-05-07 21:03 32.27608 -87.04988 34856 ft 341 kts 271°
2026-05-07 21:03 32.27800 -87.07780 34287 ft 345 kts 271°
2026-05-07 21:03 32.27999 -87.10585 33729 ft 347 kts 271°
2026-05-07 21:04 32.28201 -87.13430 33157 ft 348 kts 271°
2026-05-07 21:04 32.28399 -87.16279 32637 ft 352 kts 271°
2026-05-07 21:04 32.28599 -87.19145 32135 ft 355 kts 271°
2026-05-07 21:04 32.28797 -87.22066 31627 ft 356 kts 272°
2026-05-07 21:05 32.29003 -87.24971 31126 ft 358 kts 272°
2026-05-07 21:05 32.29204 -87.27871 30626 ft 360 kts 272°
2026-05-07 21:05 32.29401 -87.30809 30119 ft 360 kts 272°
2026-05-07 21:05 32.29603 -87.33762 29610 ft 363 kts 272°
2026-05-07 21:06 32.29810 -87.36739 29102 ft 366 kts 272°
2026-05-07 21:06 32.30014 -87.39715 28602 ft 368 kts 272°
2026-05-07 21:06 32.30215 -87.42735 28088 ft 364 kts 272°
2026-05-07 21:06 32.30420 -87.45682 27573 ft 361 kts 272°
2026-05-07 21:07 32.30616 -87.48621 27067 ft 359 kts 273°
2026-05-07 21:07 32.30812 -87.51524 26560 ft 357 kts 272°
2026-05-07 21:07 32.31007 -87.54445 26044 ft 355 kts 272°
2026-05-07 21:07 32.31198 -87.57322 25460 ft 353 kts 272°
2026-05-07 21:08 32.31386 -87.60154 24832 ft 346 kts 272°
2026-05-07 21:08 32.31571 -87.62899 24178 ft 330 kts 272°
2026-05-07 21:08 32.31743 -87.65562 23527 ft 319 kts 272°
2026-05-07 21:08 32.31915 -87.68140 22932 ft 320 kts 272°
2026-05-07 21:09 32.32085 -87.70782 22335 ft 320 kts 271°
2026-05-07 21:09 32.32254 -87.73357 21746 ft 319 kts 272°
2026-05-07 21:09 32.32424 -87.75958 21154 ft 315 kts 271°
2026-05-07 21:09 32.32594 -87.78526 20554 ft 311 kts 272°
2026-05-07 21:10 32.32754 -87.81052 19965 ft 309 kts 271°
2026-05-07 21:10 32.32914 -87.83530 19371 ft 305 kts 271°
2026-05-07 21:10 32.33076 -87.86025 18766 ft 303 kts 271°
2026-05-07 21:10 32.33235 -87.88493 18168 ft 300 kts 272°
2026-05-07 21:11 32.33386 -87.90925 17575 ft 296 kts 271°
2026-05-07 21:11 32.33541 -87.93310 16979 ft 293 kts 272°
2026-05-07 21:11 32.33841 -87.98076 15763 ft 291 kts 272°
2026-05-07 21:12 32.33986 -88.00398 15167 ft 283 kts 272°
2026-05-07 21:12 32.34132 -88.02687 14548 ft 272 kts 272°
2026-05-07 21:12 32.34265 -88.04855 13937 ft 263 kts 273°
2026-05-07 21:12 32.34398 -88.06967 13326 ft 256 kts 274°
2026-05-07 21:13 32.34526 -88.09026 12723 ft 250 kts 274°
2026-05-07 21:13 32.34653 -88.11030 12127 ft 246 kts 274°
2026-05-07 21:13 32.34779 -88.13037 11515 ft 246 kts 274°
2026-05-07 21:13 32.34901 -88.15050 10911 ft 249 kts 274°
2026-05-07 21:14 32.35029 -88.17104 10310 ft 252 kts 275°
2026-05-07 21:14 32.35159 -88.19170 9759 ft 252 kts 275°
2026-05-07 21:14 32.35282 -88.21206 9281 ft 253 kts 275°
2026-05-07 21:14 32.35413 -88.23280 8823 ft 253 kts 275°
2026-05-07 21:15 32.35539 -88.25349 8443 ft 251 kts 275°
2026-05-07 21:15 32.35662 -88.27377 8074 ft 245 kts 275°
2026-05-07 21:15 32.35784 -88.29352 7705 ft 236 kts 275°
2026-05-07 21:15 32.35900 -88.31261 7335 ft 229 kts 275°
2026-05-07 21:16 32.36012 -88.33113 6946 ft 223 kts 275°
2026-05-07 21:16 32.36113 -88.34905 6575 ft 218 kts 274°
2026-05-07 21:16 32.36518 -88.36588 6220 ft 217 kts 296°
2026-05-07 21:16 32.37230 -88.38180 5861 ft 218 kts 296°
2026-05-07 21:17 32.37961 -88.39748 5504 ft 220 kts 298°
2026-05-07 21:17 32.38712 -88.41316 5166 ft 222 kts 299°
2026-05-07 21:17 32.39471 -88.42893 4799 ft 221 kts 299°
2026-05-07 21:17 32.40240 -88.44482 4403 ft 221 kts 300°
2026-05-07 21:18 32.41004 -88.46055 4049 ft 222 kts 300°
2026-05-07 21:18 32.41761 -88.47620 3684 ft 221 kts 301°
2026-05-07 21:18 32.42532 -88.49216 3306 ft 222 kts 301°
2026-05-07 21:18 32.43293 -88.50787 2935 ft 222 kts 301°
2026-05-07 21:19 32.44051 -88.52353 2705 ft 216 kts 301°
2026-05-07 21:19 32.44794 -88.53891 2682 ft 217 kts 302°
2026-05-07 21:19 32.45559 -88.55469 2682 ft 220 kts 301°
2026-05-07 21:19 32.46316 -88.57040 2680 ft 221 kts 302°
2026-05-07 21:20 32.47081 -88.58621 2678 ft 221 kts 301°
2026-05-07 21:20 32.47835 -88.60186 2678 ft 220 kts 301°
2026-05-07 21:20 32.48477 -88.61826 2666 ft 222 kts 282°
2026-05-07 21:20 32.48170 -88.63531 2674 ft 211 kts 237°
2026-05-07 21:21 32.47127 -88.64643 2676 ft 196 kts 221°
2026-05-07 21:21 32.46095 -88.65627 2676 ft 182 kts 222°
2026-05-07 21:21 32.45140 -88.66542 2704 ft 176 kts 223°
2026-05-07 21:21 32.44186 -88.67458 2584 ft 169 kts 222°
2026-05-07 21:22 32.43277 -88.68330 2370 ft 170 kts 223°
2026-05-07 21:22 32.42356 -88.69216 2153 ft 171 kts 223°
2026-05-07 21:22 32.41435 -88.70100 1926 ft 165 kts 223°
2026-05-07 21:22 32.40572 -88.70927 1706 ft 159 kts 222°
2026-05-07 21:23 32.39717 -88.71751 1501 ft 159 kts 222°
2026-05-07 21:23 32.38866 -88.72568 1309 ft 158 kts 221°
2026-05-07 21:23 32.38007 -88.73329 1090 ft 147 kts 220°
2026-05-07 21:23 32.37221 -88.74036 889 ft 136 kts 218°
2026-05-07 21:24 32.36467 -88.74599 742 ft 125 kts 207°
2026-05-07 21:24 32.35641 -88.74890 540 ft 122 kts 192°
2026-05-07 21:24 32.34803 -88.75046 402 ft 126 kts 191°
2026-05-07 21:24 32.33949 -88.75221 297 ft 120 kts 190°
2026-05-07 21:25 32.33221 -88.75362 283 ft 90 kts 189°
2026-05-07 21:25 32.32692 -88.75460 281 ft 45 kts 190°
2026-05-07 21:25 32.32544 -88.75423 282 ft 15 kts 102°
2026-05-07 21:25 32.32539 -88.75385 282 ft 0 kts 96°
2026-05-07 21:26 32.32552 -88.75357 283 ft 9 kts 24°
2026-05-07 21:26 32.32647 -88.75337 283 ft 18 kts
2026-05-07 21:26 32.32770 -88.75313 283 ft 14 kts
2026-05-07 21:26 32.32869 -88.75293 284 ft 17 kts
2026-05-07 21:27 32.32991 -88.75223 286 ft 21 kts 27°
2026-05-07 21:27 32.33122 -88.75106 287 ft 26 kts 45°
2026-05-07 21:27 32.33265 -88.74944 290 ft 29 kts 43°
2026-05-07 21:27 32.33411 -88.74782 293 ft 28 kts 42°
2026-05-07 21:28 32.33478 -88.74644 293 ft 19 kts 131°
2026-05-07 21:28 32.33408 -88.74545 291 ft 15 kts 59°
2026-05-07 21:28 32.33495 -88.74480 293 ft 14 kts 26°
2026-05-07 21:28 32.33549 -88.74490 293 ft 8 kts 298°
2026-05-07 21:29 32.33527 -88.74522 293 ft 4 kts 170°
2026-05-07 21:29 32.33514 -88.74504 293 ft 0 kts 122°
2026-05-07 21:29 32.33513 -88.74503 293 ft 0 kts 122°